Джарджан

Россия / Республика Саха (Якутия)     68°43′55″N   124°01′10″E
темп.,
°C
ветер,
м/с
пор.,
м/с
влажн.,
%
обл.,
%
осадки,
мм/ч
давл.,
гПа
погр.,
м
3 марта, ср
ср300:00−35с229893 0.0 102523
03:00−37с239876 0.0 102522
06:00−39с239837 0.0 102438
09:00−39ссз249749 0.0 102475
12:00−35ссз359449 0.0 1023282
15:00−33ссз369360 0.0 1022353
18:00−36ссз239677 0.0 102259
21:00−37ссз359675 0.0 1022100
4 марта, чт
чт400:00−38ссз379689 0.0 1021149
03:00−38ссз379795 0.0 1020183
06:00−39ссз2498100 0.0 102087
09:00−38с12100100 0.0 101942
12:00−33св1496100 0.0 1020267
15:00−31в129397 0.0 1021183
18:00−36юв119661 0.0 102319
21:00−37ююв119564 0.0 102419
5 марта, пт
пт500:00−38ююв119544 0.0 102619
03:00−39ю119529 0.0 102718
06:00−40ю11973 0.0 102718
09:00−38ю00963 0.0 102818
12:00−33ссз11934 0.0 1028194
15:00−31ссв129034 0.0 1028286
18:00−36св119627 0.0 102919
21:00−37ссв119714 0.0 102919
6 марта, сб
сб600:00−38с11980 0.0 102919
03:00−38с11980 0.0 102918
06:00−38с12982 0.0 102818
09:00−37ссз12983 0.0 102819
12:00−32с129320 0.0 1026207
15:00−31с129048 0.0 1025256
18:00−35ссв119726 0.0 102519
21:00−37ссв009613 0.0 102519
7 марта, вс
вс700:00−37юз00960 0.0 102419
03:00−38юз01960 0.0 102419
06:00−38ююв11960 0.0 102419
09:00−36ю11917 0.0 102319
12:00−30ю138664 0.0 1022214
15:00−28ююв248972 0.0 1021264
18:00−30ююв239151 0.0 102124
21:00−32ю339034 0.0 102066